Location: Newark
(36.9825°N, 30.4647°E)
Time: 00:55:07
(UTC+00:00)

N. Korean satellite - Visible Passes

Search period start: 20 October 2019 00:00
Search period end: 30 October 2019 00:00
Orbit: 455 x 508 km, 97.2° (Epoch: 19 October)

Date Brightness Start Highest point End Pass type
(mag) Time Alt. Az. Time Alt. Az. Time Alt. Az.
20 Oct 9.0 03:17:08 10° NE 03:20:18 28° E 03:23:29 10° SSE visible
21 Oct 10.2 02:53:01 10° ENE 02:54:53 13° E 02:56:45 10° SE visible
22 Oct 10.1 16:07:49 10° SW 16:09:36 14° W 16:11:24 10° WNW visible
23 Oct 7.8 03:34:16 10° NNE 03:37:50 49° E 03:41:24 10° S visible
23 Oct 8.9 15:41:09 10° SSW 15:44:10 29° W 15:47:13 10° NW visible
24 Oct 9.5 03:09:31 10° NE 03:12:27 22° E 03:15:25 10° SSE visible
25 Oct 10.5 02:46:03 10° ENE 02:47:00 11° E 02:47:57 10° ESE visible
26 Oct 9.9 15:59:20 10° SW 16:01:40 17° W 16:04:02 10° NW visible
27 Oct 8.3 03:26:30 10° NNE 03:29:58 38° E 03:33:27 10° SSE visible
27 Oct 8.3 15:33:02 10° SSW 15:36:14 38° W 15:39:31 10° NNW visible
28 Oct 9.8 03:01:56 10° NE 03:04:33 18° E 03:07:11 10° SE visible
